| time (UTC) | temp F | wind direction | speed MPH | gust MPH | rain 1hr in | rain 24hr in | rain mn in | humidity % | barometer mb |
| 20260507031536 | 60 | 16 | 2.0 | 6.0 | 0.00 | 0.06 | 0.06 | 91 | 1014.7 |
| 20260507030035 | 60 | 19 | 1.0 | 6.0 | 0.00 | 0.06 | 0.06 | 91 | 1014.8 |
| 20260507024535 | 60 | 19 | 3.0 | 4.0 | 0.00 | 0.06 | 0.06 | 91 | 1014.6 |
| 20260507023032 | 60 | 13 | 3.0 | 8.0 | 0.00 | 0.06 | 0.06 | 91 | 1014.5 |
| 20260507021534 | 60 | 13 | 2.0 | 5.0 | 0.00 | 0.06 | 0.06 | 91 | 1014.6 |
| 20260507020045 | 60 | 19 | 2.0 | 5.0 | 0.00 | 0.06 | 0.06 | 91 | 1014.1 |
| 20260507014536 | 60 | 26 | 1.0 | 4.0 | 0.00 | 0.06 | 0.06 | 91 | 1014.2 |
| 20260507013054 | 60 | 5 | 3.0 | 7.0 | 0.00 | 0.06 | 0.06 | 90 | 1013.7 |
| 20260507011541 | 61 | 21 | 3.0 | 7.0 | 0.00 | 0.06 | 0.06 | 90 | 1013.6 |
| 20260507010044 | 61 | 17 | 3.0 | 8.0 | 0.00 | 0.06 | 0.06 | 90 | 1013.2 |
| 20260507004536 | 61 | 36 | 3.0 | 6.0 | 0.00 | 0.06 | 0.06 | 90 | 1013.1 |
| 20260507003034 | 61 | 346 | 4.0 | 9.0 | 0.00 | 0.06 | 0.06 | 89 | 1013.0 |
| 20260507001539 | 61 | 360 | 2.0 | 9.0 | 0.00 | 0.06 | 0.06 | 89 | 1012.9 |
| 20260507000045 | 61 | 351 | 6.0 | 10.0 | 0.00 | 0.06 | 0.06 | 89 | 1012.8 |
| 20260506234540 | 62 | 5 | 2.0 | 12.0 | 0.00 | 0.06 | 0.06 | 88 | 1012.5 |
| 20260506233037 | 62 | 340 | 4.0 | 11.0 | 0.00 | 0.06 | 0.06 | 87 | 1012.5 |
| 20260506231543 | 63 | 9 | 5.0 | 11.0 | 0.00 | 0.06 | 0.06 | 87 | 1012.5 |
| 20260506230035 | 63 | 5 | 8.0 | 14.0 | 0.00 | 0.06 | 0.06 | 87 | 1012.3 |
| 20260506224554 | 64 | 15 | 6.0 | 12.0 | 0.00 | 0.06 | 0.06 | 87 | 1012.1 |
| 20260506223041 | 65 | 5 | 5.0 | 13.0 | 0.00 | 0.06 | 0.06 | 86 | 1011.9 |
| 20260506221537 | 65 | 15 | 6.0 | 12.0 | 0.00 | 0.06 | 0.06 | 85 | 1011.9 |
| 20260506220041 | 66 | 323 | 8.0 | 16.0 | 0.00 | 0.06 | 0.06 | 84 | 1012.0 |
| 20260506214553 | 68 | 21 | 7.0 | 17.0 | 0.00 | 0.06 | 0.06 | 83 | 1011.8 |
| 20260506213044 | 69 | 346 | 8.0 | 13.0 | 0.00 | 0.06 | 0.06 | 82 | 1011.6 |
| 20260506211536 | 69 | 352 | 7.0 | 12.0 | 0.00 | 0.06 | 0.06 | 84 | 1011.6 |
| 20260506210041 | 69 | 352 | 8.0 | 16.0 | 0.00 | 0.06 | 0.06 | 83 | 1011.9 |
| 20260506204541 | 72 | 340 | 7.0 | 14.0 | 0.00 | 0.06 | 0.06 | 81 | 1011.8 |
| 20260506203037 | 75 | 342 | 7.0 | 13.0 | 0.00 | 0.06 | 0.06 | 81 | 1011.7 |
| 20260506201537 | 74 | 346 | 6.0 | 13.0 | 0.00 | 0.06 | 0.06 | 82 | 1011.7 |
| 20260506200041 | 74 | 351 | 5.0 | 12.0 | 0.00 | 0.06 | 0.06 | 85 | 1011.9 |
| 20260506194536 | 73 | 11 | 5.0 | 10.0 | 0.00 | 0.06 | 0.06 | 88 | 1012.0 |
| 20260506193040 | 72 | 352 | 6.0 | 12.0 | 0.00 | 0.06 | 0.06 | 89 | 1012.0 |
| 20260506191537 | 72 | 5 | 2.0 | 3.0 | 0.00 | 0.06 | 0.06 | 92 | 1012.2 |
| 20260506190043 | 71 | 330 | 2.0 | 6.0 | 0.00 | 0.06 | 0.06 | 94 | 1012.4 |
| 20260506184537 | 71 | 317 | 2.0 | 8.0 | 0.00 | 0.06 | 0.06 | 94 | 1012.4 |
| 20260506183034 | 72 | 352 | 3.0 | 9.0 | 0.02 | 0.06 | 0.06 | 94 | 1012.4 |
| 20260506181536 | 71 | 340 | 0.0 | 3.0 | 0.04 | 0.06 | 0.06 | 95 | 1012.3 |
| 20260506180036 | 70 | 313 | 0.0 | 2.0 | 0.04 | 0.06 | 0.06 | 96 | 1012.4 |
| 20260506174537 | 69 | 272 | 1.0 | 4.0 | 0.04 | 0.06 | 0.06 | 95 | 1012.8 |
| 20260506173037 | 69 | 352 | 2.0 | 4.0 | 0.02 | 0.04 | 0.04 | 95 | 1012.8 |
| 20260506171550 | 68 | 352 | 1.0 | 3.0 | 0.00 | 0.02 | 0.02 | 94 | 1012.9 |
| 20260506170039 | 68 | 352 | 1.0 | 4.0 | 0.00 | 0.02 | 0.02 | 94 | 1012.5 |
| 20260506164540 | 68 | 51 | 1.0 | 6.0 | 0.00 | 0.02 | 0.02 | 94 | 1012.5 |
| 20260506163041 | 67 | 33 | 1.0 | 5.0 | 0.02 | 0.02 | 0.02 | 94 | 1012.4 |
| 20260506161540 | 68 | 341 | 5.0 | 11.0 | 0.02 | 0.02 | 0.02 | 95 | 1012.2 |
| 20260506160037 | 67 | 333 | 5.0 | 14.0 | 0.02 | 0.02 | 0.02 | 95 | 1012.2 |
| 20260506154542 | 68 | 333 | 6.0 | 17.0 | 0.02 | 0.02 | 0.02 | 94 | 1012.1 |
| 20260506153033 | 72 | 333 | 2.0 | 4.0 | 0.00 | 0.00 | 0.00 | 96 | 1011.8 |
| 20260506151537 | 72 | 153 | 0.0 | 3.0 | 0.00 | 0.00 | 0.00 | 96 | 1011.6 |
| 20260506150045 | 72 | 0 | 0.0 | 5.0 | 0.00 | 0.00 | 0.00 | 96 | 1011.5 |
| 20260506144548 | 72 | 153 | 0.0 | 3.0 | 0.00 | 0.00 | 0.00 | 97 | 1011.5 |
| 20260506143036 | 72 | 0 | 0.0 | 5.0 | 0.00 | 0.00 | 0.00 | 97 | 1011.5 |
| 20260506141535 | 72 | 25 | 0.0 | 4.0 | 0.00 | 0.00 | 0.00 | 97 | 1011.3 |
| 20260506140043 | 72 | 0 | 0.0 | 2.0 | 0.00 | 0.00 | 0.00 | 97 | 1011.2 |
| 20260506134537 | 71 | 161 | 0.0 | 4.0 | 0.00 | 0.00 | 0.00 | 97 | 1010.6 |
| 20260506133044 | 71 | 155 | 2.0 | 9.0 | 0.00 | 0.00 | 0.00 | 97 | 1009.8 |
| 20260506131542 | 71 | 165 | 1.0 | 5.0 | 0.00 | 0.00 | 0.00 | 97 | 1009.6 |
| 20260506130037 | 71 | 175 | 2.0 | 6.0 | 0.00 | 0.00 | 0.00 | 97 | 1009.7 |
| 20260506124537 | 71 | 129 | 3.0 | 7.0 | 0.00 | 0.00 | 0.00 | 97 | 1009.5 |
| 20260506123034 | 71 | 136 | 3.0 | 5.0 | 0.00 | 0.00 | 0.00 | 97 | 1009.3 |
| 20260506121536 | 71 | 157 | 2.0 | 7.0 | 0.00 | 0.00 | 0.00 | 97 | 1009.1 |
| 20260506120042 | 71 | 157 | 2.0 | 5.0 | 0.00 | 0.00 | 0.00 | 96 | 1009.2 |
| 20260506114534 | 71 | 182 | 3.0 | 7.0 | 0.00 | 0.00 | 0.00 | 97 | 1009.0 |
| 20260506113046 | 71 | 148 | 2.0 | 6.0 | 0.00 | 0.00 | 0.00 | 97 | 1009.3 |
| 20260506111535 | 71 | 151 | 2.0 | 7.0 | 0.00 | 0.00 | 0.00 | 96 | 1009.4 |
| 20260506110036 | 72 | 145 | 1.0 | 9.0 | 0.00 | 0.00 | 0.00 | 96 | 1009.4 |
| 20260506104537 | 72 | 161 | 4.0 | 10.0 | 0.00 | 0.00 | 0.00 | 96 | 1009.2 |
| 20260506103036 | 72 | 142 | 3.0 | 8.0 | 0.00 | 0.00 | 0.00 | 96 | 1009.4 |
| 20260506101544 | 72 | 148 | 4.0 | 11.0 | 0.00 | 0.00 | 0.00 | 96 | 1009.3 |
| 20260506100037 | 72 | 155 | 5.0 | 16.0 | 0.00 | 0.00 | 0.00 | 96 | 1009.2 |
| 20260506094537 | 72 | 161 | 5.0 | 12.0 | 0.00 | 0.00 | 0.00 | 96 | 1009.2 |
| 20260506093034 | 72 | 150 | 4.0 | 10.0 | 0.00 | 0.00 | 0.00 | 96 | 1009.1 |
| 20260506091534 | 72 | 136 | 4.0 | 13.0 | 0.00 | 0.00 | 0.00 | 96 | 1009.0 |
| 20260506090035 | 72 | 161 | 5.0 | 12.0 | 0.00 | 0.00 | 0.00 | 96 | 1008.9 |
| 20260506084540 | 72 | 158 | 5.0 | 9.0 | 0.00 | 0.00 | 0.00 | 95 | 1008.6 |
| 20260506083039 | 72 | 148 | 5.0 | 12.0 | 0.00 | 0.00 | 0.00 | 95 | 1008.7 |
| 20260506081537 | 72 | 148 | 4.0 | 11.0 | 0.00 | 0.00 | 0.00 | 95 | 1008.5 |
| 20260506073035 | 73 | 169 | 7.0 | 17.0 | 0.00 | 0.00 | 0.00 | 93 | 1008.8 |
| 20260506071541 | 73 | 146 | 5.0 | 10.0 | 0.00 | 0.00 | 0.00 | 93 | 1009.1 |
| 20260506061534 | 74 | 134 | 4.0 | 11.0 | 0.00 | 0.00 | 0.00 | 92 | 1009.5 |
| 20260506044536 | 70 | 0 | 0.0 | 0.0 | 0.00 | 0.00 | 0.00 | 95 | 1009.3 |
| 20260506043036 | 69 | 264 | 0.0 | 3.0 | 0.00 | 0.00 | 0.00 | 94 | 1009.3 |
| 20260506041535 | 69 | 0 | 0.0 | 0.0 | 0.00 | 0.00 | 0.00 | 93 | 1009.1 |
| 20260506040040 | 69 | 0 | 0.0 | 0.0 | 0.00 | 0.00 | 0.00 | 93 | 1009.0 |
| 20260506034535 | 69 | 0 | 0.0 | 0.0 | 0.00 | 0.00 | 0.00 | 92 | 1008.9 |
| 20260506033040 | 70 | 0 | 0.0 | 0.0 | 0.00 | 0.00 | 0.00 | 91 | 1008.8 |